^^
No Wait Weather (KNEBELLE1) Station Historical Data
 
Daily Summary for July 19, 2019 Units:  English    Metric   Both
Daily Weekly Monthly Yearly Custom
  Current: High: Low: Average:
Temperature: 79.2 °F 84.5 °F 79.2 °F 81.3 °F
Dew Point: 71.73 °F 74.87 °F 71.73 °F 73.2 °F
Humidity: 78% 82% 73% 77%
Wind Speed: 0mph 0mph 0mph 0mph
Wind Gust: 0mph 0mph - -
WindCalm - - North
Pressure: 29.50 in 29.50 in 29.48 in -
Precipitation: 0 in      
Historical Graphs
 
 
Tabular Data for July 19, 2019
Time Temperature Dew Point Pressure Wind Wind Speed Wind Gust Humidity Rainfall Rate (Hourly) solar
00:04 84.5 °F 74.87 °F 29.48 in Calm     73% 0 in WeatherCatV3.04B91 W/m2
00:09 84.3 °F 74.68 °F 29.48 in Calm     73% 0 in WeatherCatV3.04B91 W/m2
00:14 84.3 °F 74.68 °F 29.49 in Calm     73% 0 in WeatherCatV3.04B91 W/m2
00:19 84.1 °F 74.48 °F 29.49 in Calm     73% 0 in WeatherCatV3.04B91 W/m2
00:24 84 °F 74.79 °F 29.49 in Calm     74% 0 in WeatherCatV3.04B91 W/m2
00:29 83.8 °F 74.6 °F 29.49 in Calm     74% 0 in WeatherCatV3.04B91 W/m2
00:34 83.6 °F 74.41 °F 29.49 in Calm     74% 0 in WeatherCatV3.04B91 W/m2
00:39 83.4 °F 74.62 °F 29.49 in Calm     75% 0 in WeatherCatV3.04B91 W/m2
00:44 83.2 °F 74.43 °F 29.49 in Calm     75% 0 in WeatherCatV3.04B91 W/m2
00:49 83 °F 74.63 °F 29.49 in Calm     76% 0 in WeatherCatV3.04B91 W/m2
00:54 82.6 °F 74.64 °F 29.49 in Calm     77% 0 in WeatherCatV3.04B91 W/m2
00:59 82.4 °F 74.44 °F 29.50 in Calm     77% 0 in WeatherCatV3.04B91 W/m2
01:04 82 °F 74.44 °F 29.50 in Calm     78% 0 in WeatherCatV3.04B91 W/m2
01:09 81.8 °F 74.25 °F 29.50 in Calm     78% 0 in WeatherCatV3.04B91 W/m2
01:14 81.6 °F 74.43 °F 29.49 in Calm     79% 0 in WeatherCatV3.04B91 W/m2
01:19 81.4 °F 74.24 °F 29.49 in Calm     79% 0 in WeatherCatV3.04B91 W/m2
01:24 81.2 °F 74.42 °F 29.49 in Calm     80% 0 in WeatherCatV3.04B91 W/m2
01:29 81.1 °F 74.33 °F 29.49 in Calm     80% 0 in WeatherCatV3.04B91 W/m2
01:34 80.9 °F 74.5 °F 29.49 in Calm     81% 0 in WeatherCatV3.04B91 W/m2
01:39 80.7 °F 74.31 °F 29.49 in Calm     81% 0 in WeatherCatV3.04B91 W/m2
01:44 80.5 °F 74.11 °F 29.49 in Calm     81% 0 in WeatherCatV3.04B91 W/m2
01:49 80.3 °F 74.29 °F 29.49 in Calm     82% 0 in WeatherCatV3.04B91 W/m2
01:54 80.1 °F 74.09 °F 29.49 in Calm     82% 0 in WeatherCatV3.04B91 W/m2
01:59 79.9 °F 73.9 °F 29.49 in Calm     82% 0 in WeatherCatV3.04B91 W/m2
02:04 80.1 °F 73.72 °F 29.49 in Calm     81% 0 in WeatherCatV3.04B91 W/m2
02:09 80.1 °F 73.72 °F 29.49 in Calm     81% 0 in WeatherCatV3.04B91 W/m2
02:14 80.3 °F 73.55 °F 29.49 in Calm     80% 0 in WeatherCatV3.04B91 W/m2
02:19 80.5 °F 73.37 °F 29.49 in Calm     79% 0 in WeatherCatV3.04B91 W/m2
02:24 80.7 °F 73.18 °F 29.49 in Calm     78% 0 in WeatherCatV3.04B91 W/m2
02:29 80.7 °F 73.18 °F 29.49 in Calm     78% 0 in WeatherCatV3.04B91 W/m2
02:34 80.9 °F 72.99 °F 29.49 in Calm     77% 0 in WeatherCatV3.04B91 W/m2
02:39 80.9 °F 72.99 °F 29.49 in Calm     77% 0 in WeatherCatV3.04B91 W/m2
02:44 81.1 °F 72.8 °F 29.49 in Calm     76% 0 in WeatherCatV3.04B91 W/m2
02:49 81.1 °F 72.8 °F 29.49 in Calm     76% 0 in WeatherCatV3.04B91 W/m2
02:54 81.1 °F 72.8 °F 29.49 in Calm     76% 0 in WeatherCatV3.04B91 W/m2
02:59 81.2 °F 72.5 °F 29.49 in Calm     75% 0 in WeatherCatV3.04B91 W/m2
03:04 81.2 °F 72.5 °F 29.49 in Calm     75% 0 in WeatherCatV3.04B91 W/m2
03:09 81.4 °F 72.29 °F 29.49 in Calm     74% 0 in WeatherCatV3.04B91 W/m2
03:14 81.4 °F 72.29 °F 29.49 in Calm     74% 0 in WeatherCatV3.04B91 W/m2
03:19 81.4 °F 72.29 °F 29.49 in Calm     74% 0 in WeatherCatV3.04B91 W/m2
03:24 81.4 °F 72.29 °F 29.49 in Calm     74% 0 in WeatherCatV3.04B91 W/m2
03:29 81.4 °F 72.29 °F 29.49 in Calm     74% 0 in WeatherCatV3.04B91 W/m2
03:34 81.2 °F 72.1 °F 29.49 in Calm     74% 0 in WeatherCatV3.04B91 W/m2
03:39 81.2 °F 72.1 °F 29.49 in Calm     74% 0 in WeatherCatV3.04B91 W/m2
03:44 81.2 °F 72.1 °F 29.49 in Calm     74% 0 in WeatherCatV3.04B91 W/m2
03:49 81.1 °F 72.4 °F 29.49 in Calm     75% 0 in WeatherCatV3.04B91 W/m2
03:54 81.1 °F 72.4 °F 29.49 in Calm     75% 0 in WeatherCatV3.04B91 W/m2
03:59 80.9 °F 72.21 °F 29.49 in Calm     75% 0 in WeatherCatV3.04B91 W/m2
04:04 80.9 °F 72.21 °F 29.49 in Calm     75% 0 in WeatherCatV3.04B91 W/m2
04:09 80.9 °F 72.21 °F 29.49 in Calm     75% 0 in WeatherCatV3.04B91 W/m2
04:14 80.7 °F 72.02 °F 29.49 in Calm     75% 0 in WeatherCatV3.04B91 W/m2
04:19 80.7 °F 72.02 °F 29.49 in Calm     75% 0 in WeatherCatV3.04B91 W/m2
04:24 80.7 °F 72.02 °F 29.49 in Calm     75% 0 in WeatherCatV3.04B91 W/m2
04:29 80.7 °F 72.02 °F 29.49 in Calm     75% 0 in WeatherCatV3.04B91 W/m2
04:34 80.5 °F 72.22 °F 29.49 in Calm     76% 0 in WeatherCatV3.04B91 W/m2
04:39 80.3 °F 72.02 °F 29.49 in Calm     76% 0 in WeatherCatV3.04B91 W/m2
04:44 80.3 °F 72.02 °F 29.49 in Calm     76% 0 in WeatherCatV3.04B91 W/m2
04:49 80.1 °F 71.83 °F 29.49 in Calm     76% 0 in WeatherCatV3.04B91 W/m2
04:54 80.1 °F 72.22 °F 29.49 in Calm     77% 0 in WeatherCatV3.04B91 W/m2
04:59 79.9 °F 72.02 °F 29.49 in Calm     77% 0 in WeatherCatV3.04B91 W/m2
05:04 79.8 °F 71.93 °F 29.49 in Calm     77% 0 in WeatherCatV3.04B91 W/m2
05:09 79.6 °F 71.73 °F 29.49 in Calm     77% 0 in WeatherCatV3.04B91 W/m2
05:14 79.6 °F 72.12 °F 29.50 in Calm     78% 0 in WeatherCatV3.04B91 W/m2
05:19 79.4 °F 71.92 °F 29.50 in Calm     78% 0 in WeatherCatV3.04B91 W/m2
05:24 79.2 °F 71.73 °F 29.50 in Calm     78% 0 in WeatherCatV3.04B91 W/m2
Bellevue, Nebraska, USA
Compliments of Weather Underground - 2 mb